weather.gov     
National Weather Service

Regional Weather Roundup
NWS Homepage
This page is being discontinued on March 12, 2014.
The same data is available at this site. Please update your bookmarks.
Thank you, and we apologize for the inconvenience.
Please send an email to SR-SRH.Webmaster@noaa.gov with any concerns.


Current Version
Previous Version:    01  02  03  04  05  06  07  08  09  10  11  12  13  14  15  16  17  18  19  20  21  22  23  24  25  26  27  28  29  30  
   31  32  33  34  35  36  37  38  39  40  41  42  43  44  45  46  47  48  49  50  51  52  53  54  55  56  57  58  59  60  
[Printable]
714
ASUS43 KDTX 261310
RWRMI
MICHIGAN HOURLY REGIONAL WEATHER ROUNDUP
NATIONAL WEATHER SERVICE DETROIT/PONTIAC MI
900 AM EDT SAT JUL 26 2014

NOTE: "FAIR" INDICATES FEW OR NO CLOUDS BELOW 12,000 FEET WITH NO
SIGNIFICANT WEATHER AND/OR OBSTRUCTION TO VISIBILITY.

MIZ047>049-052>055-059>063-066>070-074>076-081>083-261400-
SOUTHEAST LOWER MICHIGAN

CITY           SKY/WX    TMP DP  RH WIND       PRES   REMARKS
ADRIAN         MOSUNNY   65  59  81 SW5       29.93F
ALMA           MOSUNNY   65  60  85 SW5       29.91S
ANN ARBOR      MOSUNNY   66  58  75 MISG      29.93S
BAD AXE        CLOUDY    66  58  75 SW5       29.91F
CARO           CLOUDY    68  62  80 S5        29.90F
DETROIT CITY   SUNNY     72  56  57 SW7       29.92F
DETROIT        MOSUNNY   68  58  70 S8        29.93S
FLINT          MOSUNNY   67  58  72 SW6       29.92S
GROSSE ILE     MOSUNNY   70  59  68 S5        29.91S
HILLSDALE      SUNNY     67  63  86 SW3       29.93S
HOWELL         CLOUDY    65  59  79 SW3       29.93R

CITY           SKY/WX    TMP DP  RH WIND       PRES   REMARKS
JACKSON        PTSUNNY   65  59  81 S5        29.92S
LAMBERTVILLE   MOSUNNY   68  59  73 S3        29.93F
LANSING        MOSUNNY   67  59  75 MISG      29.91S
LAPEER         PTSUNNY   68  57  66 W6        29.93R
MASON          PTSUNNY   65  59  79 CALM      29.92R
MONROE         LGT RAIN  66  61  82 SW3       29.91S
MT. CLEMENS    MOSUNNY   70  58  65 SW7       29.92R
PONTIAC        MOSUNNY   67  56  67 SW9       29.92S
PORT HOPE        N/A     68  58  70 SW8       29.89S
PORT HURON     SUNNY     68  59  73 SW5       29.93S
TRI CITIES     PTSUNNY   68  60  75 SW8       29.91S
TROY           MOSUNNY   68  58  69 SW7       29.93S
SAGINAW HB     LGT RAIN  66  59  77 SW6       29.91R
$$
MIZ043>046-050>051-056>058-064>065-071>073-077>080-261400-
SOUTHWEST LOWER MICHIGAN

CITY           SKY/WX    TMP DP  RH WIND       PRES   REMARKS
BATTLE CREEK   MOSUNNY   67  59  75 S8        29.91S
BENTON HARBOR  CLOUDY    65  60  84 S6        29.89R
BIG RAPIDS     MOSUNNY   65  63  94 SE5       29.88S
COLDWATER      SUNNY     69  61  76 S3        29.92S
FREMONT        FAIR      65  63  93 S3        29.88S
HOLLAND        CLOUDY    66  61  84 S3        29.90R
GRAND RAPIDS   CLOUDY    67  60  78 SW6       29.90R
IONIA          FAIR      66  59  78 SW7       29.89S
KALAMAZOO      MOSUNNY   67  60  78 S6        29.91R
LUDINGTON      PTSUNNY   69  64  82 SW7       29.86S
MARSHALL       MOSUNNY   66  60  80 SW6       29.91S
MOUNT PLEASANT MOSUNNY   66  60  81 SW5       29.91R
MUSKEGON       PTSUNNY   69  61  75 S10       29.88S
SOUTH HAVEN    CLOUDY    66  62  89 S3        29.89S
$$
MIZ016>042-261400-
NORTHERN LOWER MICHIGAN

CITY           SKY/WX    TMP DP  RH WIND       PRES   REMARKS
ALPENA         CLOUDY    66  60  81 S5        29.84F
BEAVER ISLAND  CLOUDY    64  63  97 SW9G16    29.80F
BELLAIRE       RAIN      64  62  90 S5        29.83S
CADILLAC       PTSUNNY   63  61  96 SW7       29.86F
CHARLEVOIX     LGT RAIN  66  64  94 SW6       29.86S
FRANKFORT      PTSUNNY   67  61  79 S6        29.83F
GAYLORD        CLOUDY    64  60  87 W10       29.88R
GRAYLING       CLOUDY    63  62  97 CALM      29.88R
HARBOR SPRINGS CLOUDY    66  60  81 SW6       29.83S
HOUGHTON LAKE  LGT RAIN  61  60  97 MISG      29.89R FOG
MANISTEE       PTSUNNY   64  59  82 CALM      29.86S
OSCODA         PTSUNNY   67  58  74 S8        29.85F
PELLSTON       CLOUDY    66  61  84 S3        29.83R
ROGERS CITY    CLOUDY    65  61  86 S6        29.84S
TRAVERSE CITY  CLOUDY    65  62  90 CALM      29.83F THUNDER
$$
MIZ007>008-015-261400-
EASTERN UPPER MICHIGAN

CITY           SKY/WX    TMP DP  RH WIND       PRES   REMARKS
KINROSS        CLOUDY    64  63  94 S6        29.81R
MACKINAC ISLAN CLOUDY    64  62  93 S7        29.81R
NEWBERRY       CLOUDY    62  60  94 S6        29.79R
S. S. MARIE    CLOUDY    65  60  84 S5        29.79S
MUNISING         N/A     67  62  84 S8        29.75F
$$
MIZ004>006-011>014-085-261400-
CENTRAL UPPER MICHIGAN

CITY           SKY/WX    TMP DP  RH WIND       PRES   REMARKS
MANISTIQUE     RAIN      61  61  99 S3        29.78S
ESCANABA       CLOUDY    64  61  88 S3        29.78S
MENOMINEE      CLOUDY    66  63  88 SW3       29.79R
SAWYER-GWINN   CLOUDY    66  63  88 SW6       29.77S
$$
MIZ001>003-009>011-084-261400-
WESTERN UPPER MICHIGAN

CITY           SKY/WX    TMP DP  RH WIND       PRES   REMARKS
IRON MOUNTAIN  CLOUDY    65  61  87 S3        29.77F
HOUGHTON       CLOUDY    66  64  93 SW6       29.72S FOG
COPPER HARBOR    N/A     65  62  90 SW8       29.69F
$$

ABBREVIATIONS USED IN REMARKS
   TC - TEMPERATURE IN CELSIUS
  WCI - WIND CHILL INDEX
   HX - HEAT INDEX
  VSB - VISIBILITY





U.S. Dept. of Commerce
NOAA National Weather Service
1325 East West Highway
Silver Spring, MD 20910
E-mail: w-nws.webmaster@noaa.gov
Page last modified: May 16, 2007
NATIONAL WEATHER SERVICE: for Safety, for Work, for Fun - FOR LIFE